SHU5618 UHWW-UHHH

Flight info

Callsign SHU5618
Flight time 0h 55m
Altitude 35000
Route DOLM2F/07R DOLMA B356 TD B355 ARDEL ARDE6D/05R
Aircraft A319/M-SDE3FGHIRWY/LB1

Departure

Time 2026-05-07 13:17
Airport Vladivostok International Airport (UHWW)

Arrival

Time 2026-05-07 14:12
Airport Khabarovsk Novy Airport (UHHH)
Time Latitude Longitude Altitude Speed Heading
2026-05-07 12:48 43.39817 132.16286 54 ft 0 kts 150°
2026-05-07 13:06 43.39806 132.16293 54 ft 7 kts 149°
2026-05-07 13:07 43.39754 132.16267 54 ft 10 kts 248°
2026-05-07 13:07 43.39764 132.16202 54 ft 9 kts 324°
2026-05-07 13:07 43.39827 132.16154 54 ft 11 kts 329°
2026-05-07 13:07 43.39874 132.16118 54 ft 9 kts 329°
2026-05-07 13:08 43.39889 132.16051 54 ft 10 kts 247°
2026-05-07 13:08 43.39860 132.15974 54 ft 11 kts 241°
2026-05-07 13:08 43.39821 132.15874 54 ft 12 kts 241°
2026-05-07 13:08 43.39776 132.15762 54 ft 13 kts 241°
2026-05-07 13:09 43.39727 132.15642 54 ft 14 kts 240°
2026-05-07 13:09 43.39675 132.15512 54 ft 15 kts 241°
2026-05-07 13:09 43.39621 132.15376 54 ft 16 kts 241°
2026-05-07 13:09 43.39564 132.15234 54 ft 17 kts 240°
2026-05-07 13:10 43.39505 132.15088 54 ft 17 kts 241°
2026-05-07 13:10 43.39444 132.14935 54 ft 18 kts 241°
2026-05-07 13:10 43.39380 132.14780 54 ft 18 kts 240°
2026-05-07 13:10 43.39316 132.14619 54 ft 19 kts 241°
2026-05-07 13:11 43.39250 132.14456 54 ft 19 kts 241°
2026-05-07 13:11 43.39183 132.14291 54 ft 20 kts 240°
2026-05-07 13:11 43.39115 132.14122 54 ft 20 kts 241°
2026-05-07 13:11 43.39047 132.13953 54 ft 17 kts 240°
2026-05-07 13:12 43.39001 132.13840 54 ft 12 kts 241°
2026-05-07 13:12 43.38958 132.13731 54 ft 11 kts 241°
2026-05-07 13:12 43.38919 132.13634 54 ft 11 kts 241°
2026-05-07 13:12 43.38879 132.13533 54 ft 12 kts 241°
2026-05-07 13:13 43.38834 132.13422 54 ft 13 kts 240°
2026-05-07 13:13 43.38797 132.13332 54 ft 8 kts 241°
2026-05-07 13:13 43.38772 132.13254 54 ft 9 kts 258°
2026-05-07 13:13 43.38784 132.13176 54 ft 10 kts 311°
2026-05-07 13:14 43.38843 132.13133 54 ft 11 kts 330°
2026-05-07 13:14 43.38894 132.13095 54 ft 8 kts 332°
2026-05-07 13:14 43.38932 132.13088 54 ft 6 kts 27°
2026-05-07 13:14 43.38955 132.13132 54 ft 6 kts 62°
2026-05-07 13:15 43.38957 132.13136 54 ft 0 kts 62°
2026-05-07 13:16 43.38958 132.13139 54 ft 1 kts 62°
2026-05-07 13:16 43.38968 132.13162 54 ft 7 kts 61°
2026-05-07 13:16 43.39150 132.13609 54 ft 102 kts 60°
2026-05-07 13:16 43.39630 132.14792 167 ft 169 kts 60°
2026-05-07 13:17 43.40199 132.16191 1059 ft 175 kts 60°
2026-05-07 13:17 43.40818 132.17719 1846 ft 198 kts 60°
2026-05-07 13:17 43.41501 132.19421 2750 ft 210 kts 60°
2026-05-07 13:17 43.42222 132.21211 3617 ft 223 kts 57°
2026-05-07 13:18 43.43339 132.22682 4331 ft 239 kts 22°
2026-05-07 13:18 43.45021 132.23055 5060 ft 256 kts 354°
2026-05-07 13:18 43.46837 132.22871 6014 ft 269 kts 352°
2026-05-07 13:18 43.48688 132.22821 7147 ft 277 kts
2026-05-07 13:19 43.50480 132.23796 8305 ft 286 kts 31°
2026-05-07 13:19 43.51996 132.25549 9438 ft 292 kts 40°
2026-05-07 13:19 43.53420 132.27496 10484 ft 298 kts 41°
2026-05-07 13:19 43.54924 132.29570 11215 ft 315 kts 41°
2026-05-07 13:20 43.56541 132.31749 11820 ft 334 kts 40°
2026-05-07 13:20 43.58229 132.33981 12445 ft 349 kts 40°
2026-05-07 13:20 43.60016 132.36324 13331 ft 356 kts 39°
2026-05-07 13:20 43.61808 132.38663 14238 ft 361 kts 39°
2026-05-07 13:21 43.63625 132.41025 15091 ft 366 kts 39°
2026-05-07 13:21 43.65507 132.43469 15926 ft 372 kts 39°
2026-05-07 13:21 43.67381 132.45901 16724 ft 377 kts 38°
2026-05-07 13:21 43.69304 132.48396 17502 ft 382 kts 38°
2026-05-07 13:22 43.71236 132.50903 18252 ft 387 kts 38°
2026-05-07 13:22 43.73205 132.53456 19042 ft 390 kts 38°
2026-05-07 13:22 43.75176 132.56014 19698 ft 396 kts 38°
2026-05-07 13:22 43.77185 132.58624 20331 ft 403 kts 38°
2026-05-07 13:23 43.79242 132.61307 20992 ft 408 kts 38°
2026-05-07 13:23 43.81324 132.64009 21641 ft 412 kts 37°
2026-05-07 13:23 43.83441 132.66640 22255 ft 416 kts 36°
2026-05-07 13:23 43.85609 132.69301 22840 ft 421 kts 36°
2026-05-07 13:24 43.87811 132.72002 23408 ft 426 kts 36°
2026-05-07 13:24 43.90033 132.74731 23969 ft 430 kts 36°
2026-05-07 13:24 43.92274 132.77492 24507 ft 435 kts 36°
2026-05-07 13:24 43.94534 132.80281 25036 ft 439 kts 36°
2026-05-07 13:25 43.96830 132.83119 25534 ft 444 kts 36°
2026-05-07 13:25 43.99121 132.85954 26018 ft 448 kts 36°
2026-05-07 13:25 44.01451 132.88841 26498 ft 452 kts 36°
2026-05-07 13:25 44.03822 132.91786 26971 ft 457 kts 36°
2026-05-07 13:26 44.06180 132.94714 27420 ft 461 kts 36°
2026-05-07 13:26 44.08577 132.97696 27861 ft 465 kts 36°
2026-05-07 13:26 44.10973 133.00678 28288 ft 469 kts 36°
2026-05-07 13:26 44.13428 133.03722 28718 ft 472 kts 36°
2026-05-07 13:27 44.15894 133.06787 29119 ft 476 kts 36°
2026-05-07 13:27 44.18344 133.09840 29505 ft 480 kts 36°
2026-05-07 13:27 44.20909 133.12830 29886 ft 481 kts 32°
2026-05-07 13:27 44.23565 133.15648 30259 ft 482 kts 31°
2026-05-07 13:28 44.26253 133.18411 30682 ft 483 kts 30°
2026-05-07 13:28 44.28947 133.21167 31189 ft 483 kts 30°
2026-05-07 13:28 44.31631 133.23918 31697 ft 482 kts 30°
2026-05-07 13:28 44.34318 133.26682 32186 ft 481 kts 30°
2026-05-07 13:29 44.37008 133.29457 32660 ft 481 kts 30°
2026-05-07 13:29 44.39694 133.32234 33127 ft 481 kts 30°
2026-05-07 13:29 44.42377 133.35013 33533 ft 482 kts 30°
2026-05-07 13:29 44.45061 133.37796 33885 ft 484 kts 30°
2026-05-07 13:30 44.47770 133.40608 34222 ft 486 kts 30°
2026-05-07 13:30 44.50471 133.43413 34545 ft 487 kts 30°
2026-05-07 13:30 44.53165 133.46217 34823 ft 489 kts 30°
2026-05-07 13:30 44.55899 133.49066 34874 ft 491 kts 30°
2026-05-07 13:31 44.61354 133.54765 34880 ft 491 kts 30°
2026-05-07 13:31 44.66840 133.60510 34879 ft 491 kts 30°
2026-05-07 13:32 44.72272 133.66216 34877 ft 491 kts 31°
2026-05-07 13:32 44.77742 133.72002 34880 ft 491 kts 31°
2026-05-07 13:33 44.83189 133.77760 34879 ft 492 kts 31°
2026-05-07 13:33 44.88654 133.83542 34881 ft 492 kts 31°
2026-05-07 13:34 44.96879 133.91992 34881 ft 490 kts 28°
2026-05-07 13:35 45.02454 133.97492 34881 ft 489 kts 29°
2026-05-07 13:35 45.08000 134.03003 34881 ft 487 kts 30°
2026-05-07 13:36 45.13540 134.08531 34882 ft 484 kts 30°
2026-05-07 13:36 45.18988 134.13980 34881 ft 484 kts 30°
2026-05-07 13:37 45.24486 134.19502 34880 ft 484 kts 30°
2026-05-07 13:37 45.29943 134.25005 34882 ft 484 kts 30°
2026-05-07 13:38 45.35421 134.30542 34881 ft 484 kts 30°
2026-05-07 13:38 45.40877 134.36072 34880 ft 484 kts 30°
2026-05-07 13:39 45.46344 134.41629 34881 ft 484 kts 30°
2026-05-07 13:39 45.51815 134.47195 34880 ft 484 kts 30°
2026-05-07 13:40 45.57289 134.52786 34880 ft 484 kts 30°
2026-05-07 13:40 45.62729 134.58356 34881 ft 485 kts 30°
2026-05-07 13:41 45.68203 134.63974 34881 ft 484 kts 30°
2026-05-07 13:41 45.73641 134.69589 34879 ft 485 kts 31°
2026-05-07 13:42 45.79094 134.75236 34879 ft 484 kts 31°
2026-05-07 13:42 45.84598 134.80653 34881 ft 481 kts 25°
2026-05-07 13:43 45.90525 134.84776 34882 ft 473 kts 15°
2026-05-07 13:43 45.96781 134.87315 34881 ft 465 kts
2026-05-07 13:44 46.03145 134.88440 34881 ft 461 kts 359°
2026-05-07 13:44 46.09524 134.89232 34879 ft 462 kts 359°
2026-05-07 13:45 46.15896 134.90044 34881 ft 462 kts 359°
2026-05-07 13:45 46.22297 134.90887 34894 ft 463 kts 360°
2026-05-07 13:46 46.28692 134.91751 34902 ft 463 kts 359°
2026-05-07 13:46 46.35071 134.92595 34885 ft 463 kts 359°
2026-05-07 13:47 46.41448 134.93448 34881 ft 463 kts 359°
2026-05-07 13:47 46.47849 134.94307 34881 ft 464 kts 359°
2026-05-07 13:48 46.54247 134.95167 34880 ft 463 kts 359°
2026-05-07 13:48 46.60657 134.96030 34880 ft 464 kts 359°
2026-05-07 13:49 46.67056 134.96899 34880 ft 464 kts 359°
2026-05-07 13:49 46.73463 134.97772 34495 ft 465 kts 359°
2026-05-07 13:49 46.76652 134.98210 33883 ft 461 kts 359°
2026-05-07 13:50 46.79828 134.98538 33213 ft 455 kts 356°
2026-05-07 13:50 46.82945 134.98604 32465 ft 452 kts 353°
2026-05-07 13:50 46.86075 134.98406 31620 ft 451 kts 351°
2026-05-07 13:50 46.89177 134.98048 30832 ft 449 kts 349°
2026-05-07 13:51 46.92241 134.97661 30022 ft 448 kts 350°
2026-05-07 13:51 46.95319 134.97267 29434 ft 442 kts 350°
2026-05-07 13:51 46.98330 134.96889 28905 ft 436 kts 350°
2026-05-07 13:51 47.01335 134.96513 28339 ft 430 kts 350°
2026-05-07 13:52 47.04285 134.96147 27770 ft 425 kts 351°
2026-05-07 13:52 47.07222 134.95783 27188 ft 421 kts 351°
2026-05-07 13:52 47.10109 134.95425 26620 ft 416 kts 351°
2026-05-07 13:52 47.12046 134.95186 26240 ft 413 kts 351°
2026-05-07 13:53 47.15473 134.94766 25567 ft 408 kts 351°
2026-05-07 13:53 47.18273 134.94421 25025 ft 404 kts 351°
2026-05-07 13:53 47.21050 134.94078 24480 ft 400 kts 351°
2026-05-07 13:53 47.23783 134.93739 23938 ft 396 kts 351°
2026-05-07 13:54 47.26514 134.93399 23384 ft 393 kts 351°
2026-05-07 13:54 47.29213 134.93063 22843 ft 390 kts 351°
2026-05-07 13:54 47.31900 134.92729 22306 ft 387 kts 351°
2026-05-07 13:54 47.34552 134.92397 21776 ft 384 kts 351°
2026-05-07 13:55 47.37185 134.92068 21247 ft 381 kts 351°
2026-05-07 13:55 47.39803 134.91740 20720 ft 379 kts 351°
2026-05-07 13:55 47.42434 134.91411 20191 ft 376 kts 351°
2026-05-07 13:55 47.45003 134.91089 19676 ft 374 kts 352°
2026-05-07 13:56 47.47600 134.90764 19151 ft 372 kts 352°
2026-05-07 13:56 47.50154 134.90442 18632 ft 370 kts 352°
2026-05-07 13:56 47.52705 134.90122 18111 ft 368 kts 352°
2026-05-07 13:56 47.55216 134.89806 17599 ft 366 kts 352°
2026-05-07 13:57 47.57736 134.89488 17085 ft 364 kts 352°
2026-05-07 13:57 47.60249 134.89172 16573 ft 361 kts 352°
2026-05-07 13:57 47.62741 134.88858 16061 ft 360 kts 352°
2026-05-07 13:57 47.65185 134.88550 15558 ft 358 kts 352°
2026-05-07 13:58 47.67679 134.88235 15043 ft 356 kts 352°
2026-05-07 13:58 47.70138 134.87924 14536 ft 354 kts 353°
2026-05-07 13:58 47.72549 134.87619 14073 ft 353 kts 353°
2026-05-07 13:58 47.74992 134.87311 13877 ft 354 kts 353°
2026-05-07 13:59 47.77434 134.87003 13873 ft 354 kts 353°
2026-05-07 13:59 47.79887 134.86691 13870 ft 355 kts 353°
2026-05-07 13:59 47.82344 134.86380 13868 ft 355 kts 353°
2026-05-07 13:59 47.84806 134.86067 13868 ft 355 kts 353°
2026-05-07 14:00 47.87265 134.85751 13868 ft 355 kts 353°
2026-05-07 14:00 47.89701 134.85439 13867 ft 354 kts 353°
2026-05-07 14:00 47.92123 134.85130 13866 ft 337 kts 353°
2026-05-07 14:00 47.94389 134.84847 13865 ft 318 kts 353°
2026-05-07 14:01 47.96520 134.84578 13862 ft 304 kts 352°
2026-05-07 14:01 47.98592 134.84312 13599 ft 298 kts 352°
2026-05-07 14:01 48.00652 134.84047 13281 ft 294 kts 352°
2026-05-07 14:01 48.02659 134.83787 12833 ft 295 kts 352°
2026-05-07 14:02 48.04739 134.83516 12124 ft 304 kts 353°
2026-05-07 14:02 48.06846 134.83241 11426 ft 311 kts 353°
2026-05-07 14:02 48.08970 134.82968 10727 ft 303 kts 353°
2026-05-07 14:02 48.11022 134.82710 10026 ft 290 kts 353°
2026-05-07 14:03 48.12969 134.82465 9331 ft 279 kts 353°
2026-05-07 14:03 48.14869 134.82222 8628 ft 270 kts 353°
2026-05-07 14:03 48.16697 134.81987 7932 ft 263 kts 353°
2026-05-07 14:03 48.18492 134.81755 7291 ft 254 kts 354°
2026-05-07 14:04 48.20219 134.81532 6906 ft 250 kts 354°
2026-05-07 14:04 48.21918 134.81514 6912 ft 246 kts 10°
2026-05-07 14:04 48.23536 134.82428 6700 ft 248 kts 24°
2026-05-07 14:04 48.25067 134.83606 6371 ft 246 kts 26°
2026-05-07 14:05 48.26560 134.84788 6105 ft 244 kts 26°
2026-05-07 14:05 48.28067 134.85965 5821 ft 243 kts 25°
2026-05-07 14:05 48.29494 134.87280 5517 ft 243 kts 37°
2026-05-07 14:05 48.30779 134.88928 5153 ft 243 kts 40°
2026-05-07 14:06 48.32023 134.90631 4805 ft 241 kts 41°
2026-05-07 14:06 48.33255 134.92342 4518 ft 239 kts 41°
2026-05-07 14:06 48.34462 134.94014 4235 ft 237 kts 41°
2026-05-07 14:06 48.35657 134.95662 3951 ft 226 kts 41°
2026-05-07 14:07 48.36775 134.97198 3685 ft 209 kts 41°
2026-05-07 14:07 48.37815 134.98624 3438 ft 196 kts 40°
2026-05-07 14:07 48.38820 134.99999 3207 ft 195 kts 40°
2026-05-07 14:07 48.39816 135.01358 2978 ft 193 kts 41°
2026-05-07 14:08 48.40769 135.02661 2858 ft 181 kts 40°
2026-05-07 14:08 48.41694 135.03925 2625 ft 175 kts 41°
2026-05-07 14:08 48.42575 135.05129 2435 ft 167 kts 41°
2026-05-07 14:08 48.43407 135.06267 2223 ft 160 kts 41°
2026-05-07 14:09 48.44216 135.07371 2017 ft 153 kts 41°
2026-05-07 14:09 48.44982 135.08418 1817 ft 142 kts 41°
2026-05-07 14:09 48.45681 135.09374 1631 ft 130 kts 41°
2026-05-07 14:09 48.46338 135.10271 1482 ft 122 kts 41°
2026-05-07 14:10 48.46718 135.10783 1374 ft 115 kts 40°
2026-05-07 14:10 48.47303 135.11571 1243 ft 113 kts 41°
2026-05-07 14:10 48.47872 135.12384 1103 ft 113 kts 43°
2026-05-07 14:10 48.48459 135.13176 985 ft 112 kts 40°
2026-05-07 14:11 48.49043 135.13963 858 ft 112 kts 42°
2026-05-07 14:11 48.49605 135.14758 749 ft 112 kts 41°
2026-05-07 14:11 48.50179 135.15552 644 ft 112 kts 43°
2026-05-07 14:11 48.50769 135.16333 467 ft 111 kts 40°
2026-05-07 14:12 48.51350 135.17108 342 ft 112 kts 40°
2026-05-07 14:12 48.51917 135.17883 265 ft 105 kts 41°
2026-05-07 14:12 48.52390 135.18530 251 ft 74 kts 42°
2026-05-07 14:12 48.52644 135.18875 251 ft 25 kts 42°
2026-05-07 14:13 48.52694 135.18970 251 ft 8 kts 65°
2026-05-07 14:13 48.52714 135.18986 251 ft 4 kts 323°
2026-05-07 14:13 48.52704 135.18942 251 ft 6 kts 205°
2026-05-07 14:13 48.52657 135.18895 251 ft 16 kts 221°
2026-05-07 14:14 48.52565 135.18768 251 ft 18 kts 222°
2026-05-07 14:14 48.52468 135.18637 251 ft 19 kts 221°
2026-05-07 14:14 48.52372 135.18507 251 ft 17 kts 221°
2026-05-07 14:14 48.52282 135.18382 251 ft 18 kts 222°
2026-05-07 14:15 48.52193 135.18262 251 ft 13 kts 222°
2026-05-07 14:15 48.52135 135.18184 251 ft 14 kts 222°
2026-05-07 14:15 48.52121 135.18071 251 ft 14 kts 309°
2026-05-07 14:15 48.52193 135.17952 251 ft 16 kts 313°
2026-05-07 14:16 48.52269 135.17821 251 ft 17 kts 312°
2026-05-07 14:16 48.52320 135.17737 251 ft 10 kts 312°
2026-05-07 14:16 48.52372 135.17648 251 ft 12 kts 311°
2026-05-07 14:16 48.52433 135.17546 251 ft 13 kts 312°
2026-05-07 14:17 48.52487 135.17456 251 ft 9 kts 312°
2026-05-07 14:17 48.52506 135.17409 251 ft 7 kts 267°
2026-05-07 14:17 48.52486 135.17349 251 ft 4 kts 229°
2026-05-07 14:17 48.52457 135.17307 251 ft 6 kts 222°
2026-05-07 14:18 48.52436 135.17278 251 ft 3 kts 222°
2026-05-07 14:18 48.52426 135.17246 251 ft 4 kts 289°
2026-05-07 14:18 48.52444 135.17213 251 ft 5 kts 307°
2026-05-07 14:18 48.52464 135.17180 251 ft 2 kts 316°
2026-05-07 14:19 48.52472 135.17168 251 ft 1 kts 311°
2026-05-07 14:19 48.52476 135.17160 251 ft 0 kts 310°
2026-05-07 14:19 48.52477 135.17158 251 ft 0 kts 310°